Wheaton NDB, MN

11:50 AM CDT on June 29, 2017 (GMT -0500)
Wheaton Municipal

Weather History for KETH - February, 2014

Change the Weather History Date:

Sunday, February 16, 2014

  Actual Average Record
Temperature  
Mean Temperature 10 °F -  
Max Temperature 19 °F 25 °F 57 °F (1981)
Min Temperature 0 °F 5 °F -31 °F (1967)
Degree Days  
Heating Degree Days 56    
Moisture  
Dew Point 7 °F    
Average Humidity 85    
Maximum Humidity 93    
Minimum Humidity 79    
Precipitation  
Precipitation 0.00 in - - ()
Sea Level Pressure  
Sea Level Pressure 30.03 in    
Wind  
Wind Speed 12 mph (SE)    
Max Wind Speed 32 mph    
Max Gust Speed 38 mph    
Visibility 8 miles    
Events Snow    
Averages and records for this station are not official NWS values.
T = Trace of Precipitation, MM = Missing Value Source: NWS Daily Summary

Daily Weather History Graph

Daily Weather History Graph

Search for Another Location

Airport or City:

Trip Planner

Search our weather history database for the weather conditions in past years. The results will help you decide how hot, cold, wet, or windy it might be!

Date:

Astronomy

Feb. 16, 2014 Rise Set
Actual Time 7:26 AM CST 5:54 PM CST
Civil Twilight 6:56 AM CST 6:24 PM CST
Nautical Twilight 6:21 AM CST 6:59 PM CST
Astronomical Twilight 5:47 AM CST 7:34 PM CST
Moon 8:00 PM CST (2/16) 7:49 AM CST (2/16)
Length of Visible Light 11h 28m
Length of Day
10h 27m
Full, 97% of the Moon is Illuminated
Feb 16
Full
Feb 22
Last Quarter
Mar 1
New
Mar 8
First Quarter
Mar 16
Full

Hourly Weather History & Observations

Time (CST) Temp. Windchill Dew Point Humidity Pressure Visibility Wind Dir Wind Speed Gust Speed Precip Events Conditions
12:14 AM 3.2 °F -12.2 °F -0.4 °F 85% 30.13 in 10.0 mi NNW 10.4 mph - N/A   Scattered Clouds
12:34 AM 3.2 °F -10.3 °F -0.4 °F 85% 30.15 in 10.0 mi NW 8.1 mph - N/A   Clear
12:54 AM 3.2 °F -9.1 °F -0.4 °F 85% 30.16 in 10.0 mi NW 6.9 mph - N/A   Clear
1:14 AM 3.2 °F -7.8 °F -0.4 °F 85% 30.17 in 10.0 mi NW 5.8 mph - N/A Snow Light Snow
1:34 AM 3.2 °F -7.8 °F -0.4 °F 85% 30.17 in 10.0 mi NW 5.8 mph - N/A Snow Light Snow
1:54 AM 3.2 °F -10.3 °F -0.4 °F 85% 30.17 in 10.0 mi NW 8.1 mph - N/A Snow Light Snow
2:14 AM 3.2 °F -4.2 °F -0.4 °F 85% 30.18 in 10.0 mi West 3.5 mph - N/A Snow Light Snow
2:34 AM 3.2 °F -10.3 °F -0.4 °F 85% 30.18 in 10.0 mi NW 8.1 mph - N/A Snow Light Snow
2:54 AM 3.2 °F -7.8 °F -0.4 °F 85% 30.18 in 10.0 mi WNW 5.8 mph - N/A Snow Light Snow
3:14 AM 3.2 °F -9.1 °F -0.4 °F 85% 30.18 in 10.0 mi NW 6.9 mph - N/A Snow Light Snow
3:34 AM 3.2 °F -9.1 °F -0.4 °F 85% 30.17 in 10.0 mi NW 6.9 mph - N/A Snow Light Snow
3:54 AM 1.4 °F - -2.2 °F 85% 30.18 in 10.0 mi Calm Calm - N/A Snow Light Snow
4:14 AM 1.4 °F -6.2 °F -2.2 °F 85% 30.17 in 10.0 mi WNW 3.5 mph - N/A   Scattered Clouds
4:34 AM 1.4 °F - -2.2 °F 85% 30.16 in 10.0 mi Calm Calm - N/A   Mostly Cloudy
4:54 AM 1.4 °F - -2.2 °F 85% 30.18 in 7.0 mi Calm Calm - N/A Snow Light Snow
5:14 AM 1.4 °F - -2.2 °F 85% 30.17 in 5.0 mi Calm Calm - N/A Snow Light Snow
5:34 AM 1.4 °F - -2.2 °F 85% 30.16 in 10.0 mi Calm Calm - N/A Snow Light Snow
5:54 AM 1.4 °F - -2.2 °F 85% 30.17 in 7.0 mi Calm Calm - N/A Snow Light Snow
6:14 AM 1.4 °F - -2.2 °F 85% 30.17 in 7.0 mi Calm Calm - N/A Snow Light Snow
6:34 AM 1.4 °F - -2.2 °F 85% 30.17 in 10.0 mi Calm Calm - N/A Snow Light Snow
6:54 AM -0.4 °F - -2.2 °F 92% 30.18 in 10.0 mi Calm Calm - N/A   Clear
7:14 AM 1.4 °F - -2.2 °F 85% 30.19 in 10.0 mi Calm Calm - N/A   Clear
7:34 AM -0.4 °F - -2.2 °F 92% 30.19 in 10.0 mi Calm Calm - N/A   Clear
7:54 AM -0.4 °F - -4.0 °F 85% 30.20 in 10.0 mi Calm Calm - N/A   Clear
8:14 AM -0.4 °F - -4.0 °F 85% 30.19 in 10.0 mi Calm Calm - N/A   Mostly Cloudy
8:34 AM 1.4 °F -6.2 °F -2.2 °F 85% 30.19 in 4.0 mi SSE 3.5 mph - N/A Snow Light Snow
8:54 AM 3.2 °F -6.2 °F -0.4 °F 85% 30.18 in 2.5 mi SE 4.6 mph - N/A Snow Light Snow
9:14 AM 5.0 °F -4.1 °F 1.4 °F 85% 30.18 in 2.5 mi SSE 4.6 mph - N/A Snow Light Snow
9:34 AM 5.0 °F -6.9 °F 1.4 °F 85% 30.17 in 3.0 mi SE 6.9 mph - N/A Snow Light Snow
9:54 AM 5.0 °F -9.1 °F 1.4 °F 85% 30.15 in 4.0 mi ESE 9.2 mph - N/A Snow Light Snow
10:14 AM 6.8 °F -8.6 °F 1.4 °F 79% 30.13 in 5.0 mi ESE 11.5 mph - N/A Snow Light Snow
10:34 AM 8.6 °F -7.7 °F 3.2 °F 79% 30.12 in 10.0 mi ESE 13.8 mph - N/A Snow Light Snow
10:54 AM 10.4 °F -6.6 °F 6.8 °F 85% 30.11 in 10.0 mi ESE 16.1 mph - N/A   Clear
11:14 AM 10.4 °F -7.7 °F 8.6 °F 92% 30.10 in 10.0 mi SE 18.4 mph - N/A   Clear
11:34 AM 12.2 °F -6.7 °F 8.6 °F 85% 30.09 in 10.0 mi ESE 21.9 mph - N/A   Mostly Cloudy
11:54 AM 12.2 °F -6.3 °F 10.4 °F 92% 30.08 in 10.0 mi SE 20.7 mph 26.5 mph N/A   Overcast
12:14 PM 14.0 °F -4.3 °F 10.4 °F 86% 30.06 in 4.0 mi SE 21.9 mph 27.6 mph N/A Snow Light Snow
12:34 PM 15.8 °F -2.3 °F 10.4 °F 79% 30.04 in 5.0 mi SE 23.0 mph - N/A Snow Light Snow
12:54 PM 15.8 °F -1.9 °F 12.2 °F 86% 30.02 in 4.0 mi SE 21.9 mph - N/A Snow Light Snow
1:14 PM 15.8 °F -1.9 °F 12.2 °F 86% 30.01 in 7.0 mi SE 21.9 mph 27.6 mph N/A   Overcast
1:34 PM 17.6 °F -1.3 °F 12.2 °F 79% 30.00 in 7.0 mi SE 27.6 mph - N/A   Overcast
1:54 PM 17.6 °F -0.6 °F 12.2 °F 79% 29.99 in 5.0 mi SE 25.3 mph 31.1 mph N/A Snow Light Snow
2:14 PM 17.6 °F -0.6 °F 15.8 °F 93% 29.98 in 3.0 mi SE 25.3 mph 29.9 mph N/A Snow Light Snow
2:34 PM 17.6 °F 0.1 °F 14.0 °F 86% 29.97 in 4.0 mi SE 23.0 mph 28.8 mph N/A Snow Light Snow
2:54 PM 19.4 °F 2.5 °F 15.8 °F 86% 29.97 in 5.0 mi SE 23.0 mph - N/A   Overcast
3:14 PM 19.4 °F 1.4 °F 14.0 °F 80% 29.95 in 10.0 mi SE 26.5 mph - N/A   Overcast
3:34 PM 19.4 °F 1.1 °F 14.0 °F 80% 29.94 in 10.0 mi SE 27.6 mph - N/A   Overcast
3:54 PM 19.4 °F 0.5 °F 14.0 °F 80% 29.92 in 4.0 mi SE 29.9 mph 35.7 mph N/A   Haze
4:14 PM 19.4 °F 0.2 °F 14.0 °F 80% 29.91 in 10.0 mi SE 31.1 mph 36.8 mph N/A   Mostly Cloudy
4:34 PM 19.4 °F 0.2 °F 15.8 °F 86% 29.91 in 10.0 mi SE 31.1 mph 34.5 mph N/A   Mostly Cloudy
4:54 PM 19.4 °F 1.8 °F 15.8 °F 86% 29.91 in 10.0 mi SE 25.3 mph 32.2 mph N/A   Mostly Cloudy
5:14 PM 19.4 °F -0.0 °F 15.8 °F 86% 29.89 in 10.0 mi ESE 32.2 mph 35.7 mph N/A   Mostly Cloudy
5:34 PM 19.4 °F 0.8 °F 15.8 °F 86% 29.88 in 10.0 mi ESE 28.8 mph 33.4 mph N/A   Scattered Clouds
5:54 PM 19.4 °F 0.2 °F 15.8 °F 86% 29.88 in 10.0 mi SE 31.1 mph 36.8 mph N/A   Clear
6:14 PM 19.4 °F 0.8 °F 15.8 °F 86% 29.87 in 10.0 mi SE 28.8 mph - N/A   Clear
6:34 PM 19.4 °F 0.2 °F 15.8 °F 86% 29.86 in 10.0 mi SE 31.1 mph 35.7 mph N/A   Scattered Clouds
6:54 PM 19.4 °F -0.0 °F 15.8 °F 86% 29.86 in 10.0 mi SE 32.2 mph 38.0 mph N/A   Scattered Clouds
7:14 PM 19.4 °F 1.1 °F 14.0 °F 80% 29.87 in 10.0 mi SE 27.6 mph 34.5 mph N/A   Clear
7:34 PM 19.4 °F 0.5 °F 15.8 °F 86% 29.86 in 10.0 mi SE 29.9 mph 34.5 mph N/A   Mostly Cloudy
7:54 PM 19.4 °F 2.8 °F 15.8 °F 86% 29.86 in 10.0 mi SE 21.9 mph 32.2 mph N/A   Overcast
8:14 PM 19.4 °F 2.1 °F 15.8 °F 86% 29.86 in 10.0 mi SE 24.2 mph 27.6 mph N/A   Overcast
8:34 PM 19.4 °F 2.1 °F 15.8 °F 86% 29.85 in 10.0 mi SE 24.2 mph 32.2 mph N/A   Overcast
8:54 PM 19.4 °F 2.1 °F 15.8 °F 86% 29.84 in 10.0 mi ESE 24.2 mph 28.8 mph N/A   Overcast
9:14 PM 19.4 °F 2.1 °F 15.8 °F 86% 29.82 in 10.0 mi SE 24.2 mph - N/A   Mostly Cloudy
9:34 PM 19.4 °F 2.5 °F 15.8 °F 86% 29.81 in 10.0 mi ESE 23.0 mph - N/A   Clear
9:54 PM 19.4 °F 2.5 °F 15.8 °F 86% 29.79 in 10.0 mi ESE 23.0 mph 27.6 mph N/A   Clear
10:14 PM 19.4 °F 2.5 °F 15.8 °F 86% 29.78 in 10.0 mi ESE 23.0 mph - N/A   Clear
10:34 PM 19.4 °F 1.4 °F 15.8 °F 86% 29.77 in 10.0 mi SE 26.5 mph 29.9 mph N/A   Clear
10:54 PM 19.4 °F 2.5 °F 15.8 °F 86% 29.77 in 10.0 mi SE 23.0 mph - N/A   Scattered Clouds
11:14 PM 19.4 °F 2.8 °F 15.8 °F 86% 29.77 in 10.0 mi ESE 21.9 mph - N/A   Mostly Cloudy
11:34 PM 19.4 °F 3.6 °F 15.8 °F 86% 29.76 in 10.0 mi ESE 19.6 mph - N/A   Overcast
11:54 PM 19.4 °F 4.1 °F 17.6 °F 93% 29.75 in 10.0 mi ESE 18.4 mph - N/A   Overcast